DW9151 Weather Reports


Display with metric or nautical units.
time (UTC)temp
F
wind
direction
speed
MPH
gust
MPH
rain 1hr
in
rain 24hr
in
rain mn
in
humidity
%
barometer
mb
20260906223605 57 342 1.0 3.0 0.00 0.00 0.00 85 1024.5
20260906223105 57 0 2.0 3.0 0.00 0.00 0.00 85 1024.5
20260906222605 57 337 1.0 3.0 0.00 0.00 0.00 85 1024.5
20260906222105 57 336 1.0 3.0 0.00 0.00 0.00 85 1024.4
20260906221605 57 322 1.0 3.0 0.00 0.00 0.00 85 1024.4
20260906221105 57 351 1.0 2.0 0.00 0.00 0.00 85 1024.3
20260906220605 57 345 0.0 0.0 0.00 0.00 0.00 85 1024.3
20260906220105 57 358 0.0 3.0 0.00 0.00 0.00 85 1024.2
20260906215605 57 347 1.0 3.0 0.00 0.00 0.00 85 1024.3
20260906214605 57 340 1.0 3.0 0.00 0.00 0.00 84 1024.3
20260906214105 57 351 0.0 3.0 0.00 0.00 0.00 85 1024.2
20260906213605 58 354 2.0 3.0 0.00 0.00 0.00 84 1024.2
20260906212605 58 351 1.0 3.0 0.00 0.00 0.00 84 1024.2
20260906212105 57 344 1.0 3.0 0.00 0.00 0.00 85 1024.1
20260906211606 57 354 2.0 3.0 0.00 0.00 0.00 85 1024.2
20260906211105 57 351 1.0 3.0 0.00 0.00 0.00 85 1024.2
20260906210605 57 349 2.0 3.0 0.00 0.00 0.00 85 1024.1
20260906210105 57 348 2.0 3.0 0.00 0.00 0.00 85 1024.1
20260906205605 57 356 2.0 5.0 0.00 0.00 0.00 85 1024.1
20260906204105 57 350 2.0 3.0 0.00 0.00 0.00 85 1024.1
20260906203105 57 318 2.0 3.0 0.00 0.00 0.00 85 1024.1
20260906202105 58 348 2.0 6.0 0.00 0.00 0.00 85 1024.1
20260906200605 58 350 1.0 3.0 0.00 0.00 0.00 84 1024.0
20260906200106 58 352 3.0 3.0 0.00 0.00 0.00 84 1024.0
20260906195605 58 0 2.0 3.0 0.00 0.00 0.00 84 1024.0
20260906195104 58 354 3.0 6.0 0.00 0.00 0.00 84 1024.0
20260906194605 58 0 3.0 5.0 0.00 0.00 0.00 84 1024.0
20260906194105 58 347 4.0 6.0 0.00 0.00 0.00 84 1024.1
20260906193605 58 0 3.0 5.0 0.00 0.00 0.00 84 1024.0
20260906193105 58 356 3.0 7.0 0.00 0.00 0.00 84 1023.8
20260906192605 58 358 5.0 10.0 0.00 0.00 0.00 84 1023.8
20260906192105 58 353 6.0 10.0 0.00 0.00 0.00 84 1023.8
20260906191605 58 356 3.0 5.0 0.00 0.00 0.00 84 1023.8
20260906191105 58 350 3.0 5.0 0.00 0.00 0.00 84 1023.8
20260906190605 58 0 3.0 3.0 0.00 0.00 0.00 84 1023.9
20260906190105 58 359 2.0 5.0 0.00 0.00 0.00 84 1023.9
20260906185604 58 352 2.0 5.0 0.00 0.00 0.00 84 1023.8
20260906185105 58 356 3.0 6.0 0.00 0.00 0.00 84 1023.8
20260906184607 58 354 2.0 3.0 0.00 0.00 0.00 84 1023.8
20260906183105 58 354 2.0 6.0 0.00 0.00 0.00 84 1023.7
20260906182606 57 198 1.0 3.0 0.00 0.00 0.00 84 1023.7
20260906182105 57 171 2.0 3.0 0.00 0.00 0.00 84 1023.6
20260906181605 57 166 0.0 2.0 0.00 0.00 0.00 84 1023.5
20260906181105 57 167 1.0 3.0 0.00 0.00 0.00 85 1023.5
20260906180605 57 167 1.0 3.0 0.00 0.00 0.00 85 1023.4
20260906180105 57 167 0.0 1.0 0.00 0.00 0.00 85 1023.4
20260906175604 57 167 1.0 3.0 0.00 0.00 0.00 85 1023.3
20260906175105 57 167 2.0 3.0 0.00 0.00 0.00 85 1023.3
20260906174105 58 164 2.0 3.0 0.00 0.00 0.00 85 1023.3
20260906173604 58 163 3.0 5.0 0.00 0.00 0.00 84 1023.3
20260906173104 58 163 3.0 5.0 0.00 0.00 0.00 84 1023.3
20260906172605 58 157 5.0 8.0 0.00 0.00 0.00 84 1023.2
20260906172105 58 159 3.0 8.0 0.00 0.00 0.00 84 1023.3
20260906171106 58 149 5.0 8.0 0.00 0.00 0.00 84 1023.2
20260906170605 58 148 6.0 9.0 0.00 0.00 0.00 83 1023.3
20260906170106 58 156 5.0 7.0 0.00 0.00 0.00 83 1023.2
20260906165105 58 153 6.0 9.0 0.00 0.00 0.00 83 1023.1
20260906164604 58 17 5.0 8.0 0.00 0.00 0.00 82 1023.1
20260906164104 58 163 5.0 7.0 0.00 0.00 0.00 82 1023.1
20260906163604 59 162 5.0 7.0 0.00 0.00 0.00 82 1023.1
20260906163104 59 143 5.0 8.0 0.00 0.00 0.00 82 1023.1
20260906162605 59 158 5.0 8.0 0.00 0.00 0.00 82 1023.1
20260906162104 59 151 6.0 9.0 0.00 0.00 0.00 81 1023.0
20260906161605 59 150 5.0 9.0 0.00 0.00 0.00 81 1022.9
20260906161105 59 168 3.0 6.0 0.00 0.00 0.00 82 1022.9
20260906160104 59 163 2.0 5.0 0.00 0.00 0.00 81 1022.9
20260906155604 60 157 5.0 7.0 0.00 0.00 0.00 80 1022.9
20260906155105 60 157 5.0 8.0 0.00 0.00 0.00 80 1022.9
20260906154604 60 151 5.0 7.0 0.00 0.00 0.00 80 1023.0
20260906154106 61 0 5.0 6.0 0.00 0.00 0.00 80 1022.9
20260906153604 61 2 5.0 8.0 0.00 0.00 0.00 79 1023.0
20260906153105 61 163 5.0 7.0 0.00 0.00 0.00 79 1023.0
20260906152605 61 170 4.0 7.0 0.00 0.00 0.00 80 1023.0
20260906152104 61 170 3.0 8.0 0.00 0.00 0.00 78 1023.0
20260906150604 62 150 4.0 8.0 0.00 0.00 0.00 78 1023.0
20260906150104 61 144 3.0 7.0 0.00 0.00 0.00 79 1023.0
20260906145607 61 186 3.0 5.0 0.00 0.00 0.00 77 1023.0
20260906145105 61 180 3.0 6.0 0.00 0.00 0.00 77 1023.0
20260906144605 61 164 3.0 6.0 0.00 0.00 0.00 77 1023.1
20260906144104 62 162 4.0 7.0 0.00 0.00 0.00 77 1023.1
20260906142604 62 135 5.0 8.0 0.00 0.00 0.00 77 1023.0
20260906142105 62 139 5.0 8.0 0.00 0.00 0.00 76 1023.1
20260906141604 62 140 5.0 8.0 0.00 0.00 0.00 78 1023.1
20260906141105 63 141 4.0 9.0 0.00 0.00 0.00 77 1023.1
20260906140604 63 157 3.0 7.0 0.00 0.00 0.00 76 1023.0
20260906140105 63 143 4.0 9.0 0.00 0.00 0.00 75 1023.0
20260906135604 64 142 5.0 9.0 0.00 0.00 0.00 74 1023.0
20260906134605 64 141 5.0 9.0 0.00 0.00 0.00 75 1023.1
20260906134105 63 129 6.0 10.0 0.00 0.00 0.00 76 1023.0
20260906133104 63 146 4.0 12.0 0.00 0.00 0.00 76 1023.1
20260906132605 63 121 5.0 12.0 0.00 0.00 0.00 77 1023.0
20260906131604 63 118 7.0 12.0 0.00 0.00 0.00 74 1022.9
20260906131104 64 148 6.0 10.0 0.00 0.00 0.00 76 1023.0
20260906130605 64 136 4.0 12.0 0.00 0.00 0.00 76 1023.0
20260906130104 64 147 5.0 9.0 0.00 0.00 0.00 74 1023.1
20260906125604 64 125 5.0 10.0 0.00 0.00 0.00 74 1023.1
20260906124604 63 144 5.0 8.0 0.00 0.00 0.00 76 1023.2
20260906124104 63 112 5.0 12.0 0.00 0.00 0.00 76 1023.2
20260906123605 64 124 5.0 12.0 0.00 0.00 0.00 75 1023.1
20260906123105 64 133 7.0 14.0 0.00 0.00 0.00 74 1023.1
20260906122605 64 152 6.0 9.0 0.00 0.00 0.00 73 1023.1
20260906122104 65 136 6.0 12.0 0.00 0.00 0.00 72 1023.2
20260906121605 65 136 6.0 12.0 0.00 0.00 0.00 72 1023.1
20260906121105 64 141 5.0 10.0 0.00 0.00 0.00 74 1023.1
20260906120604 64 136 5.0 12.0 0.00 0.00 0.00 75 1023.1
20260906120105 64 127 5.0 9.0 0.00 0.00 0.00 74 1023.1
20260906115607 63 141 5.0 12.0 0.00 0.00 0.00 77 1023.0
20260906115104 63 111 7.0 12.0 0.00 0.00 0.00 76 1023.0
20260906114607 63 131 6.0 13.0 0.00 0.00 0.00 75 1022.9
20260906114104 64 129 9.0 13.0 0.00 0.00 0.00 73 1022.8
20260906113604 63 130 5.0 12.0 0.00 0.00 0.00 77 1022.9
20260906113104 63 128 6.0 10.0 0.00 0.00 0.00 75 1022.9
20260906112604 63 133 6.0 10.0 0.00 0.00 0.00 75 1022.8
20260906111605 64 119 6.0 12.0 0.00 0.00 0.00 75 1022.6
20260906111104 64 135 6.0 10.0 0.00 0.00 0.00 74 1022.5
20260906110604 65 123 7.0 12.0 0.00 0.00 0.00 73 1022.4
20260906110105 65 123 4.0 9.0 0.00 0.00 0.00 75 1022.4
20260906105605 64 127 4.0 10.0 0.00 0.00 0.00 76 1022.3
20260906105104 64 116 7.0 12.0 0.00 0.00 0.00 74 1022.4
20260906104604 65 126 5.0 10.0 0.00 0.00 0.00 77 1022.4
20260906104104 65 131 6.0 10.0 0.00 0.00 0.00 75 1022.4
20260906103605 64 130 3.0 10.0 0.00 0.00 0.00 77 1022.4
20260906103104 64 122 7.0 10.0 0.00 0.00 0.00 77 1022.4
20260906102605 63 136 5.0 12.0 0.00 0.00 0.00 80 1022.4
20260906102106 62 136 3.0 8.0 0.00 0.00 0.00 81 1022.4
20260906101606 63 139 6.0 10.0 0.00 0.00 0.00 79 1022.3
20260906101106 62 149 4.0 7.0 0.00 0.00 0.00 80 1022.3
20260906100106 63 141 5.0 8.0 0.00 0.00 0.00 79 1022.2
20260906095106 63 133 4.0 9.0 0.00 0.00 0.00 79 1022.4
20260906094606 63 131 5.0 10.0 0.00 0.00 0.00 81 1022.4
20260906094106 63 126 5.0 10.0 0.00 0.00 0.00 80 1022.4
20260906093606 63 132 5.0 9.0 0.00 0.00 0.00 80 1022.5
20260906093106 62 136 3.0 7.0 0.00 0.00 0.00 82 1022.5
20260906092606 62 132 5.0 12.0 0.00 0.00 0.00 82 1022.6
20260906092106 62 150 2.0 7.0 0.00 0.00 0.00 83 1022.5
20260906091606 63 118 5.0 10.0 0.00 0.00 0.00 79 1022.5
20260906091106 64 122 5.0 9.0 0.00 0.00 0.00 78 1022.6
20260906090606 64 137 3.0 7.0 0.00 0.00 0.00 79 1022.6
20260906085606 63 159 3.0 7.0 0.00 0.00 0.00 80 1022.7
20260906085106 62 139 3.0 9.0 0.00 0.00 0.00 81 1022.6
20260906084606 61 133 4.0 8.0 0.00 0.00 0.00 82 1022.6
20260906084106 62 157 6.0 9.0 0.00 0.00 0.00 78 1022.5
20260906083606 62 140 6.0 9.0 0.00 0.00 0.00 78 1022.5
20260906083105 63 137 4.0 9.0 0.00 0.00 0.00 79 1022.5
20260906082606 62 146 3.0 7.0 0.00 0.00 0.00 78 1022.5
20260906082106 62 131 5.0 9.0 0.00 0.00 0.00 77 1022.5
20260906081606 63 136 3.0 8.0 0.00 0.00 0.00 76 1022.5
20260906081105 64 128 3.0 8.0 0.00 0.00 0.00 77 1022.5
20260906080606 63 144 2.0 6.0 0.00 0.00 0.00 77 1022.5
20260906080106 63 149 2.0 5.0 0.00 0.00 0.00 79 1022.5
20260906075106 63 130 4.0 9.0 0.00 0.00 0.00 77 1022.4
20260906074606 63 124 3.0 7.0 0.00 0.00 0.00 78 1022.4
20260906074106 63 122 4.0 8.0 0.00 0.00 0.00 77 1022.3
20260906073106 62 111 2.0 5.0 0.00 0.00 0.00 81 1022.3
20260906072606 61 104 1.0 3.0 0.00 0.00 0.00 82 1022.3
20260906072106 61 98 3.0 7.0 0.00 0.00 0.00 82 1022.3
20260906071606 60 73 3.0 5.0 0.00 0.00 0.00 84 1022.3
20260906070605 60 88 2.0 8.0 0.00 0.00 0.00 83 1022.2
20260906070106 60 129 3.0 5.0 0.00 0.00 0.00 82 1022.2
20260906065105 60 132 2.0 5.0 0.00 0.00 0.00 84 1022.1
20260906064606 59 133 2.0 5.0 0.00 0.00 0.00 85 1022.1
20260906064106 58 126 2.0 5.0 0.00 0.00 0.00 85 1022.0
20260906063606 58 88 1.0 6.0 0.00 0.00 0.00 85 1022.0
20260906063106 58 88 2.0 5.0 0.00 0.00 0.00 85 1022.0
20260906062606 58 86 5.0 8.0 0.00 0.00 0.00 85 1021.9
20260906062106 58 74 2.0 3.0 0.00 0.00 0.00 85 1021.9
20260906061605 58 73 2.0 3.0 0.00 0.00 0.00 84 1021.9
20260906061106 59 70 2.0 3.0 0.00 0.00 0.00 84 1021.8
20260906060605 58 70 2.0 3.0 0.00 0.00 0.00 85 1021.8
20260906055606 58 68 2.0 7.0 0.00 0.00 0.00 85 1021.6
20260906055106 58 69 3.0 7.0 0.00 0.00 0.00 85 1021.6
20260906054605 57 65 2.0 5.0 0.00 0.00 0.00 85 1021.6
20260906054106 57 62 3.0 7.0 0.00 0.00 0.00 85 1021.6
20260906053605 57 55 3.0 7.0 0.00 0.00 0.00 86 1021.6
20260906053106 56 45 3.0 6.0 0.00 0.00 0.00 85 1021.5
20260906052606 56 65 6.0 8.0 0.00 0.00 0.00 86 1021.5
20260906052106 56 85 4.0 7.0 0.00 0.00 0.00 85 1021.4
20260906051605 55 84 3.0 6.0 0.00 0.00 0.00 85 1021.4
20260906050605 55 82 3.0 7.0 0.00 0.00 0.00 83 1021.3
20260906050106 55 82 5.0 7.0 0.00 0.00 0.00 82 1021.3
20260906045605 55 79 4.0 7.0 0.00 0.00 0.00 82 1021.2
20260906044606 55 65 3.0 7.0 0.00 0.00 0.00 83 1021.1
20260906044105 55 68 4.0 9.0 0.00 0.00 0.00 83 1021.1
20260906043605 55 67 4.0 8.0 0.00 0.00 0.00 84 1021.1
20260906043105 55 62 5.0 9.0 0.00 0.00 0.00 84 1021.0
20260906042605 55 72 5.0 8.0 0.00 0.00 0.00 84 1021.0
20260906042106 55 81 6.0 9.0 0.00 0.00 0.00 84 1021.1
20260906041606 55 83 3.0 6.0 0.00 0.00 0.00 84 1021.0
20260906040605 55 92 3.0 7.0 0.00 0.00 0.00 84 1021.1
20260906040105 55 107 4.0 7.0 0.00 0.00 0.00 84 1021.0
20260906035606 55 107 4.0 7.0 0.00 0.00 0.00 84 1020.9
20260906035106 55 113 4.0 7.0 0.00 0.00 0.00 84 1020.9
20260906034606 55 112 4.0 7.0 0.00 0.00 0.00 84 1020.8
20260906034105 55 112 3.0 7.0 0.00 0.00 0.00 84 1020.7
20260906033605 55 114 3.0 5.0 0.00 0.00 0.00 84 1020.6
20260906033105 55 114 4.0 5.0 0.00 0.00 0.00 84 1020.5
20260906032606 55 112 3.0 3.0 0.00 0.00 0.00 84 1020.4
20260906032106 56 112 3.0 5.0 0.00 0.00 0.00 85 1020.4
20260906031605 56 106 2.0 3.0 0.00 0.00 0.00 85 1020.3
20260906031105 56 106 3.0 5.0 0.00 0.00 0.00 85 1020.2
20260906030606 56 106 4.0 5.0 0.00 0.00 0.00 86 1020.2
20260906030106 57 106 3.0 5.0 0.00 0.00 0.00 86 1020.2
20260906025605 57 106 4.0 7.0 0.00 0.00 0.00 86 1020.2
20260906025105 57 106 4.0 5.0 0.00 0.00 0.00 86 1020.2
20260906023605 57 107 2.0 3.0 0.00 0.00 0.00 85 1020.2
20260906023105 57 107 3.0 5.0 0.00 0.00 0.00 85 1020.2
20260906022606 57 112 2.0 3.0 0.00 0.00 0.00 85 1020.2
20260906021605 57 112 2.0 3.0 0.00 0.00 0.00 85 1020.3
20260906021106 57 112 2.0 3.0 0.00 0.00 0.00 85 1020.2
20260906020606 57 112 1.0 3.0 0.00 0.00 0.00 85 1020.1
20260906015606 57 113 3.0 5.0 0.00 0.00 0.00 85 1020.1
20260906015105 57 113 2.0 5.0 0.00 0.00 0.00 85 1020.2
20260906014606 57 113 2.0 5.0 0.00 0.00 0.00 85 1020.1
20260906014105 57 112 4.0 7.0 0.00 0.00 0.00 85 1020.1
20260906013105 57 90 1.0 3.0 0.00 0.00 0.00 85 1020.1
20260906012106 57 90 3.0 6.0 0.00 0.00 0.00 85 1020.0
20260906011605 57 90 3.0 6.0 0.00 0.00 0.00 86 1020.0
20260906011105 57 90 3.0 6.0 0.00 0.00 0.00 85 1020.0
20260906010606 57 90 2.0 5.0 0.00 0.00 0.00 85 1020.0
20260906010105 57 90 3.0 5.0 0.00 0.00 0.00 85 1020.0
20260906005105 58 90 2.0 5.0 0.00 0.00 0.00 85 1020.1
20260906004606 58 91 2.0 3.0 0.00 0.00 0.00 85 1020.1
20260906004105 58 91 1.0 3.0 0.00 0.00 0.00 85 1020.1
20260906003605 58 92 3.0 5.0 0.00 0.00 0.00 85 1020.1
20260906003105 58 92 3.0 6.0 0.00 0.00 0.00 85 1020.2
20260906002105 58 61 1.0 5.0 0.00 0.00 0.00 83 1020.2
20260906001105 58 54 0.0 0.0 0.00 0.00 0.00 85 1020.3
20260906000105 59 54 2.0 5.0 0.00 0.00 0.00 85 1020.2
20260905235605 59 54 2.0 3.0 0.00 0.00 0.00 85 1020.2
20260905235105 59 55 2.0 3.0 0.00 0.00 0.00 85 1020.2
20260905234605 59 55 3.0 3.0 0.00 0.00 0.00 85 1020.2
20260905234105 59 54 2.0 3.0 0.00 0.00 0.00 85 1020.1
20260905233605 59 55 3.0 3.0 0.00 0.00 0.00 85 1020.1
20260905233106 59 55 2.0 3.0 0.00 0.00 0.00 85 1020.1
20260905232605 59 64 3.0 6.0 0.00 0.00 0.00 85 1020.2
20260905231605 59 74 1.0 3.0 0.00 0.00 0.00 85 1020.2
20260905231105 59 74 1.0 3.0 0.00 0.00 0.00 85 1020.2
20260905230605 59 74 2.0 6.0 0.00 0.00 0.00 85 1020.1
20260905230105 59 94 4.0 6.0 0.00 0.00 0.00 85 1020.1
20260905225105 59 92 0.0 0.0 0.00 0.00 0.00 85 1020.1
20260905224605 59 92 0.0 0.0 0.00 0.00 0.00 84 1020.1
20260905224105 59 92 0.0 0.0 0.00 0.00 0.00 83 1020.0